Regional Weather Roundup
Issued by NWS Wakefield, VA

Home | Current Version | Previous Version | Graphics & Text | Print | Product List | Glossary On
Versions: 1 2 3 4 5 6 7 8 9 10 11 12 13 14 15 16 17 18 19 20 21 22 23 24 25 26 27 28
000
ASUS41 KAKQ 170610
RWRAKQ

REGIONAL WEATHER ROUNDUP
NATIONAL WEATHER SERVICE WAKEFIELD VA
200 AM EDT THU APR 17 2014

Note: "fair" indicates few or no clouds below 12,000 feet with no
significant weather and/or obstructions to visibility. * = Denotes
station may not report precipitation (e.g., rain,snow,etc.),
thunder or fog.

VAZ042-051-052>054-056-170700-
NORTHERN VIRGINIA

CITY           SKY/WX    TMP DP  RH WIND       PRES   REMARKS
WASH NATIONAL  FAIR      42  23  46 NE6       30.56R
DULLES         FAIR      32  24  72 W5        30.55R
FORT BELVOIR   FAIR      32  28  86 NW1       30.56R
QUANTICO       FAIR      36  30  79 NW8       30.57R
FREDERICKSBRG* FAIR      34  30  86 CALM      30.54S
STAFFORD*      FAIR      30  30 100 CALM      30.58S
WARRENTON      FAIR      30  30  98 CALM      30.54S
CULPEPER*      FAIR      32  27  80 N3        30.55S
MANASSAS*      FAIR      30  30 100 CALM      30.55S
LEESBURG*      FAIR      32  28  86 CALM      30.56S
WINCHESTER     FAIR      30  23  74 CALM      30.53R
$$

VAZ048-049-060>072-079>083-170700-
CENTRAL AND SOUTH CENTRAL VIRGINIA...AND NORTH CENTRAL NORTH CAROLINA

CITY           SKY/WX    TMP DP  RH WIND       PRES   REMARKS
RICHMOND       FAIR      36  26  67 NE7       30.52S
CHESTERFIELD*  NOT AVBL
HANOVER        FAIR      31  27  85 CALM      30.54S
TAPPAHANNOCK*  FAIR      30  27  86 CALM      30.53S
CHARLOTTSVILLE FAIR      33  20  58 NW3       30.53R
ORANGE*        FAIR      32  28  86 CALM      30.54S
LOUISA*        FAIR      28  25  86 CALM      30.51S
FARMVILLE*     FAIR      34  25  69 CALM      30.50S
SOUTH HILL*    FAIR      34  30  86 CALM      30.55S
ROANOKE RAPIDS FAIR      36  34  93 CALM      30.50S
RALEIGH        FAIR      40  27  59 E8        30.47F
$$

VAZ088>098-170700-
SOUTHEAST VIRGINIA

CITY           SKY/WX    TMP DP  RH WIND       PRES   REMARKS
NORFOLK        FAIR      42  31  64 NE13      30.49F
VIRGINIA BEACH FAIR      42  31  64 NE10      30.48F
NORFOLK NAVAL  FAIR      43  32  65 NE12      30.51S
WEST POINT*    FAIR      34  29  84 CALM      30.54S
NEWPORT NEWS   FAIR      39  33  79 N3        30.51S
LANGLEY AFB    FAIR      43  32  67 E15       30.51F
FORT EUSTIS    FAIR      38  35  91 CALM      30.49F
WILLIAMSBURG*  FAIR      37  34  87 CALM      30.52F
FRANKLIN*      FAIR      34 N/A N/A CALM      30.51S
WAKEFIELD      FAIR      32  29  88 CALM      30.51F
$$

VAZ020-022-025-037-045-170700-
WESTERN AND SOUTHWEST VIRGINIA

CITY           SKY/WX    TMP DP  RH WIND       PRES   REMARKS
STAUNTON*      FAIR      30  25  79 CALM      30.52R
HOT SPRINGS VA FAIR      28  16  59 E9        30.42R
LYNCHBURG      FAIR      39  20  46 NE6       30.50S
DANVILLE       FAIR      37  25  61 E6        30.49R
MARTINSVILLE   FAIR      30  28  92 CALM      30.49S
ROANOKE        FAIR      36  22  56 CALM      30.49S
BLACKSBURG     FAIR      34  23  64 E3        30.46R
DUBLIN*        FAIR      34  22  60 SE3       30.45R
MARION*        FAIR      35  21  57 E6        30.42R
HILLSVILLE*    FAIR      34  16  47 CALM      30.44R
RICHLANDS*     FAIR      42  21  43 SE18G30   30.31S
WISE*          FAIR      41  18  38 S9G16     30.31R
ABINGDON*      FAIR      42  21  43 E9        30.34S
$$

MDZ021>025-VAZ099-100-170700-
SOUTHERN MARYLAND AND THE DELMARVA PENINSULA

CITY           SKY/WX    TMP DP  RH WIND       PRES   REMARKS
PATUXENT RIVER FAIR      41  30  65 E9        30.54S
BAY BRIDGE APT FAIR      37  30  75 CALM      30.56S
LEONARDTOWN    FAIR      36  28  75 CALM      30.55S
DOVER          FAIR      34  34  99 VRB5      30.56S
GEORGETOWN     FAIR      32  29  88 CALM      30.54F
EASTON         FAIR      35  32  87 CALM      30.58F
CAMBRIDGE      FAIR      36  32  87 CALM      30.54S
SALISBURY      FAIR      35  30  82 CALM      30.53F
OCEAN CITY     FAIR      43  29  57 E10       30.53F
WALLOPS ISLAND FAIR      43  29  57 E15       30.53S
ACCOMACK*      NOT AVBL
$$

NCZ012>017-030>032-170700-
EASTERN NORTH CAROLINA

CITY           SKY/WX    TMP DP  RH WIND       PRES   REMARKS
ELIZABETH CITY FAIR      43  33  68 NE13      30.48F
AHOSKIE*       FAIR      33  32  93 CALM      30.50S
EDENTON*       FAIR      35  32  87 N5        30.48S
CURRITUCK*     FAIR      44  31  60 NE9G20    30.49S
KILL DEVIL HLS FAIR      43  34  70 N13G21    30.43F
MANTEO         FAIR      43  35  71 NE17G25   30.44S
CAPE HATTERAS  MOCLDY    46  39  76 NE14G29   30.39F
GOLDSBORO      FAIR      38  33  80 NE5       30.45S
WASHINGTON     FAIR      38  33  83 N5        30.47S
GREENVILLE     FAIR      34  32  93 N6        30.47S
NEW BERN       FAIR      42  32  67 NE13      30.45F
WILMINGTON     FAIR      39  29  67 NE7       30.42F
$$

VAZ048-170700-
ELSEWHERE

CITY           SKY/WX    TMP DP  RH WIND       PRES   REMARKS
HARRISBURG PA  FAIR      38  17  42 CALM      30.57R
BALTIMORE      FAIR      33  24  69 CALM      30.55R
ANNAPOLIS      FAIR      43  32  65 E7        30.55S
ANDREWS AFB    FAIR      36  22  57 NE6       30.54S
WILMINGTON DE  FAIR      38  19  46 NE9       30.58S
PHILADELPHIA   FAIR      40  16  37 NE9       30.59R
WILDWOOD NJ*   FAIR      34  27  75 N3        30.57S
ATLANTIC CITY  FAIR      31  27  85 NW3       30.57R
HENDERSON NC   FAIR      36  28  72 CALM      30.49S
GREENSBORO     FAIR      38  24  57 E6        30.44S
ROCKY MOUNT      N/A    N/A N/A N/A MISG      30.49S
FAYETTEVILLE   FAIR      39  31  72 NE5       30.45S
CHARLOTTE      FAIR      44  28  53 E7        30.44R
$$

VAZ100-170700-
MARINE

STATION/POSITION TIME  TEMP    WIND        PRES    WAVE   SWELL
                       AIR SEA DIR/SP/G            HT/PER HT/PER
                 (UTC) (F)     (DEG/KT/KT) (MB)    (FT/S) (FT/S)
44066 TX TWR #4  0600   41 44   50/ 16/ 19 1034.4R   5/10   3/10
CAPE MAY NJ      0600   40 54   70/  2/  3 1034.5S
LEWES DE         0600   44 49   80/ 13/ 15 1033.7F
15NM E FENWICK I 0600   44 45              1033.6F   6/10
OCEAN-CITY-INLET 0600   43 45   70/  8/ 14 1033.4F
WACHAPREAGUE VA  0600   44 55   70/ 12/ 15 1032.9F
THOMAS POINT MD  0600   42 52  100/ 11/ 12 1035.1S
GOOSES REEF MD   0600   43     130/ 12/ 14 1034.9F
COVE POINT MD    0600   41     120/  8/ 10 1034.0S
SOLOMONS ISLAND  0600      51                N/A
BISHOPS HEAD MD  0600   42 51   60/  9/ 10 1033.6F
PINEY POINT MD   0600           90/  8/ 10   N/A
POTOMAC MD       0600   45      90/ 12/ 14 1033.1F
CAMBRIDGE MD     0600   41 56   50/  5/  7 1033.7F
LEWISETTA VA     0600   45 51  100/ 12/ 14 1033.5S
RAPPAHANNOCK LGT 0600           50/ 12/ 14 1033.7S
STINGRAY PT      0600   44      90/ 14/ 17 1033.2F
YORK RVR RNG VA  0600   44      90/ 15/ 18 1032.4S
YORKTOWN VA      0600   45 55   70/ 14/ 17 1032.9F
JAMESTOWN VA     0600   41      60/  2/  4   N/A
DOMINION TERM VA 0600   45      70/  9/ 13 1032.8F
KIPTOPEKE VA     0600      54   60/ 10/ 14   N/A
CHES BAY BRIDGE  0600   44 51   40/ 17/ 20 1032.5R
CAPE HENRY VA    0600           50/ 17/ 21   N/A
CHESAPEAKE LGHT  0500   43      50/ 19/ 21 1033.1F
WILLOUBY STN VA  0600   44      70/ 13/ 15 1031.8S
S CRANEY ISL VA  0600           40/ 11/ 13 1032.8S
CAPE HENRY BUOY  0600      45                N/A     5/11   2/11
1ST LANDING BUOY 0600      46                N/A     5/10   3/10
64NM E OF VA BCH 0600   49 64   20/ 21/ 25 1030.1F  10/ 8   3/11
DUCK PIER NC     0600   44 47   30/ 21/ 25 1030.2S
44100 DUCK FRF   0600      47                N/A     7/ 7   2/11
44056 DUCK FRF   0500      47                N/A     7/10   2/11
OREGON INLET NC  0600   44 51   10/ 17/ 23 1030.0F
HATTERAS NC      0600   49 58   20/ 14/ 26 1029.5R
CAPE LOOKOUT NC  0600   46      20/ 15/ 18 1029.1F
FRYING PAN SHLS  0600   53 63   50/ 23/ 27 1027.2F   8/ 6
$$



USA.gov is the U.S. government's official web portal to all federal, state and local government web resources and services.